Вернуться в каталог

NOAA 17 DEB

АктивенPO
NORAD 48724·DEBRIS·🇺🇸 United States

Запущен Jun 24, 2002 с Vandenberg Space Force Base

Loading…

Ближайшие Пролёты (ближайшие 24 часа)

TLE

СвежийSource: Space-Track

Эпоха: Sep 14, 2026, 09:52 UTC

1 48724U 02032BH  26257.41164818  .00007308  00000-0  10149-2 0  9992
2 48724  98.7358 308.4097 0021655  20.8109 339.3976 14.78067249290983

Отслеживайте NOAA 17 DEB в реальном времени с AllMySat

Download on the App Store